Back to catalog

STARLINK-32312

AliveCommunicationsVLEO
NORAD 61711·PAYLOAD·🇺🇸 United States

Launched Oct 30, 2024 from Cape Canaveral Space Force Station

Loading…

Next Passes (next 24 hours)

TLE

FreshSource: CelesTrak SupGP

Epoch: Sep 14, 2026, 21:16 UTC

1 61711C 24196E   26257.88659722  .00013144  00000+0  38845-3 0  2577
2 61711  53.1570 299.5990 0001113  88.6549 318.8568 15.34375036    15

Track STARLINK-32312 in real time with AllMySat

Download on the App Store